• In Hungary
  • List of Countries
  • For 7 days
  • Water Temperature
  • Satellite Maps
  • Weather Map
  • News
  • Weather Widgets
  • user-avatar
    Login

    Hourly Weather Neu Isenburg

    Today, 20 November, Monday

    Time Temperature Precipitation Wind Pressure Humidity
    00:00 +3°C° 0 mm 4 mps 754 mmHg 84%
    01:00 +3°C° 0 mm 3 mps 754 mmHg 86%
    02:00 +3°C° 0 mm 3 mps 754 mmHg 86%
    03:00 +3°C° 0 mm 3 mps 754 mmHg 87%
    04:00 +2°C° 0 mm 3 mps 754 mmHg 88%
    05:00 +2°C° 0 mm 3 mps 754 mmHg 88%
    06:00 +2°C° 0 mm 3 mps 754 mmHg 88%
    07:00 +2°C° 0 mm 2 mps 754 mmHg 88%
    08:00 +2°C° 0 mm 3 mps 754 mmHg 85%
    09:00 +2°C° 0 mm 3 mps 754 mmHg 81%
    10:00 +3°C° 0 mm 3 mps 754 mmHg 78%
    11:00 +3°C° 0.2 mm 4 mps 754 mmHg 76%
    12:00 +3°C° 0.2 mm 4 mps 754 mmHg 73%
    13:00 +4°C° 0.2 mm 4 mps 753 mmHg 71%
    14:00 +4°C° 0.2 mm 4 mps 753 mmHg 73%
    15:00 +4°C° 0.2 mm 4 mps 752 mmHg 76%
    16:00 +4°C° 0.2 mm 4 mps 751 mmHg 78%
    17:00 +4°C° 0.5 mm 4 mps 750 mmHg 81%
    18:00 +3°C° 0.5 mm 5 mps 750 mmHg 84%
    19:00 +5°C° 0.5 mm 5 mps 749 mmHg 87%
    20:00 +5°C° 0.2 mm 5 mps 749 mmHg 87%
    21:00 +5°C° 0.2 mm 6 mps 749 mmHg 87%
    22:00 +7°C° 0.2 mm 6 mps 749 mmHg 87%
    23:00 +7°C° 0.2 mm 6 mps 749 mmHg 87%

    Tomorrow, 21 November, Tuesday

    Time Temperature Precipitation Wind Pressure Humidity
    00:00 +7°C° 0.2 mm 6 mps 748 mmHg 87%
    01:00 +7°C° 0.2 mm 6 mps 748 mmHg 87%
    02:00 +7°C° 0.1 mm 6 mps 748 mmHg 88%
    03:00 +7°C° 0.1 mm 5 mps 748 mmHg 88%
    04:00 +7°C° 0.1 mm 5 mps 748 mmHg 89%
    05:00 +7°C° 0.1 mm 5 mps 748 mmHg 89%
    06:00 +7°C° 0.1 mm 5 mps 748 mmHg 89%
    07:00 +8°C° 0.1 mm 5 mps 748 mmHg 90%
    08:00 +8°C° 0.9 mm 5 mps 748 mmHg 89%
    09:00 +8°C° 0.9 mm 5 mps 749 mmHg 89%
    10:00 +8°C° 0.9 mm 5 mps 749 mmHg 89%
    11:00 +8°C° 0.3 mm 5 mps 749 mmHg 88%
    12:00 +8°C° 0.3 mm 5 mps 749 mmHg 86%
    13:00 +9°C° 0.3 mm 5 mps 749 mmHg 85%
    14:00 +8°C° 0.1 mm 5 mps 749 mmHg 85%
    15:00 +8°C° 0.1 mm 4 mps 749 mmHg 85%
    16:00 +8°C° 0.1 mm 4 mps 749 mmHg 84%
    17:00 +7°C° 0 mm 4 mps 749 mmHg 86%
    18:00 +8°C° 0 mm 3 mps 749 mmHg 89%
    19:00 +7°C° 0 mm 3 mps 749 mmHg 91%
    20:00 +7°C° 0 mm 3 mps 749 mmHg 91%
    21:00 +7°C° 0 mm 3 mps 749 mmHg 91%
    22:00 +7°C° 0 mm 3 mps 749 mmHg 91%
    23:00 +7°C° 0 mm 3 mps 748 mmHg 90%

    Day after tomorrow, 22 November, Wednesday

    Time Temperature Precipitation Wind Pressure Humidity
    00:00 +7°C° 0 mm 3 mps 748 mmHg 90%
    01:00 +5°C° 0 mm 3 mps 748 mmHg 89%
    02:00 +5°C° 0 mm 3 mps 748 mmHg 89%
    03:00 +5°C° 0 mm 3 mps 748 mmHg 89%
    04:00 +5°C° 0 mm 3 mps 748 mmHg 89%
    05:00 +5°C° 0 mm 3 mps 748 mmHg 89%
    06:00 +5°C° 0 mm 3 mps 747 mmHg 89%
    07:00 +4°C° 0 mm 3 mps 747 mmHg 89%
    08:00 +5°C° 0 mm 3 mps 748 mmHg 85%
    09:00 +7°C° 0 mm 3 mps 748 mmHg 82%
    10:00 +7°C° 0 mm 4 mps 748 mmHg 78%
    11:00 +8°C° 0 mm 4 mps 748 mmHg 74%
    12:00 +10°C° 0 mm 4 mps 747 mmHg 70%
    13:00 +11°C° 0 mm 4 mps 747 mmHg 66%
    14:00 +11°C° 0 mm 3 mps 747 mmHg 68%
    15:00 +10°C° 0 mm 3 mps 747 mmHg 71%
    16:00 +9°C° 0 mm 2 mps 747 mmHg 73%
    17:00 +9°C° 0 mm 2 mps 747 mmHg 75%
    18:00 +8°C° 0 mm 2 mps 746 mmHg 76%
    19:00 +7°C° 0 mm 2 mps 746 mmHg 78%
    20:00 +7°C° 0 mm 2 mps 746 mmHg 77%
    21:00 +7°C° 0 mm 2 mps 746 mmHg 77%
    22:00 +7°C° 0 mm 2 mps 746 mmHg 76%
    23:00 +7°C° 0 mm 3 mps 746 mmHg 75%

    23 November, Thursday

    Time Temperature Precipitation Wind Pressure Humidity
    00:00 +7°C° 0 mm 3 mps 746 mmHg 74%
    01:00 +7°C° 0 mm 3 mps 746 mmHg 73%
    02:00 +7°C° 0 mm 3 mps 746 mmHg 75%
    03:00 +7°C° 0 mm 3 mps 746 mmHg 76%
    04:00 +6°C° 0 mm 4 mps 746 mmHg 78%
    05:00 +7°C° 0 mm 4 mps 746 mmHg 78%
    06:00 +7°C° 0 mm 4 mps 746 mmHg 79%
    07:00 +7°C° 0 mm 4 mps 747 mmHg 80%
    08:00 +8°C° 0 mm 4 mps 747 mmHg 78%
    09:00 +10°C° 0 mm 4 mps 748 mmHg 75%
    10:00 +10°C° 0 mm 5 mps 748 mmHg 73%
    11:00 +12°C° 0 mm 5 mps 748 mmHg 71%
    12:00 +13°C° 0 mm 5 mps 749 mmHg 69%
    13:00 +14°C° 0 mm 5 mps 749 mmHg 67%
    14:00 +14°C° 0 mm 5 mps 749 mmHg 71%
    15:00 +13°C° 0 mm 4 mps 749 mmHg 74%
    16:00 +13°C° 0 mm 4 mps 749 mmHg 78%
    17:00 +12°C° 0 mm 3 mps 750 mmHg 80%
    18:00 +12°C° 0 mm 3 mps 750 mmHg 83%
    19:00 +11°C° 0 mm 3 mps 751 mmHg 86%
    20:00 +11°C° 0 mm 3 mps 751 mmHg 87%
    21:00 +10°C° 0 mm 3 mps 751 mmHg 88%
    22:00 +10°C° 0 mm 3 mps 752 mmHg 88%
    23:00 +10°C° 0 mm 2 mps 752 mmHg 89%

    24 November, Friday

    Time Temperature Precipitation Wind Pressure Humidity
    00:00 +9°C° 0 mm 2 mps 751 mmHg 89%
    01:00 +9°C° 0 mm 2 mps 751 mmHg 90%
    02:00 +9°C° 0 mm 2 mps 751 mmHg 90%
    03:00 +9°C° 0 mm 2 mps 751 mmHg 89%
    04:00 +8°C° 0 mm 2 mps 751 mmHg 89%
    05:00 +8°C° 0 mm 2 mps 751 mmHg 87%
    06:00 +8°C° 0 mm 2 mps 751 mmHg 86%
    07:00 +8°C° 0 mm 2 mps 751 mmHg 85%
    08:00 +9°C° 0 mm 3 mps 751 mmHg 80%
    09:00 +10°C° 0 mm 3 mps 751 mmHg 76%
    10:00 +11°C° 0 mm 3 mps 751 mmHg 71%
    11:00 +11°C° 0 mm 3 mps 751 mmHg 68%
    12:00 +12°C° 0 mm 3 mps 750 mmHg 65%
    13:00 +13°C° 0 mm 3 mps 750 mmHg 62%
    14:00 +13°C° 0 mm 3 mps 750 mmHg 64%
    15:00 +12°C° 0 mm 3 mps 749 mmHg 66%
    16:00 +12°C° 0 mm 3 mps 749 mmHg 68%
    17:00 +12°C° 0 mm 2 mps 749 mmHg 70%
    18:00 +12°C° 0 mm 2 mps 749 mmHg 71%
    19:00 +10°C° 0 mm 2 mps 749 mmHg 73%
    20:00 +10°C° 0 mm 2 mps 749 mmHg 73%
    21:00 +10°C° 0 mm 2 mps 749 mmHg 72%
    22:00 +10°C° 0 mm 2 mps 749 mmHg 72%
    23:00 +10°C° 0 mm 2 mps 749 mmHg 72%

    25 November, Saturday

    Time Temperature Precipitation Wind Pressure Humidity
    00:00 +10°C° 0 mm 2 mps 749 mmHg 72%
    01:00 +10°C° 0 mm 2 mps 749 mmHg 72%
    02:00 +10°C° 0.1 mm 3 mps 748 mmHg 72%
    03:00 +10°C° 0.1 mm 3 mps 748 mmHg 72%
    04:00 +10°C° 0.1 mm 3 mps 748 mmHg 72%
    05:00 +10°C° 0.1 mm 3 mps 748 mmHg 72%
    06:00 +10°C° 0.1 mm 3 mps 747 mmHg 72%
    07:00 +10°C° 0.1 mm 3 mps 747 mmHg 72%
    08:00 +11°C° 0 mm 3 mps 747 mmHg 69%
    09:00 +11°C° 0 mm 3 mps 747 mmHg 65%
    10:00 +12°C° 0 mm 4 mps 746 mmHg 61%
    11:00 +13°C° 0 mm 5 mps 746 mmHg 57%
    12:00 +14°C° 0 mm 5 mps 746 mmHg 53%
    13:00 +15°C° 0 mm 6 mps 746 mmHg 49%
    14:00 +14°C° 0.2 mm 6 mps 746 mmHg 57%
    15:00 +13°C° 0.2 mm 6 mps 746 mmHg 65%
    16:00 +11°C° 0.2 mm 6 mps 746 mmHg 72%
    17:00 +11°C° 0.1 mm 6 mps 747 mmHg 72%
    18:00 +10°C° 0.1 mm 5 mps 747 mmHg 72%
    19:00 +9°C° 0.1 mm 5 mps 748 mmHg 72%
    20:00 +10°C° 0 mm 4 mps 749 mmHg 73%
    21:00 +8°C° 0 mm 4 mps 749 mmHg 75%
    22:00 +8°C° 0 mm 4 mps 750 mmHg 77%
    23:00 +7°C° 0 mm 4 mps 750 mmHg 78%
    Show more